Regional & State Weather Roundups


355 
ASUS41 KLWX 241410
RWRLWX
REGIONAL WEATHER ROUNDUP
NATIONAL WEATHER SERVICE BALTIMORE MD/WASHINGTON DC
1000 AM EDT THU JUL 24 2014
Note: "FAIR" indicates few or no clouds below 12,000 feet
with no significant weather and/or obstructions to visibility.
 TC=TEMPERATURE CELSIUS
 * =Non NWS site. Station does not report precipitation (e.g. rain,
    snow, etc.), thunder, or fog.
DCZ001-MDZ009-015-VAZ040>042-051-053>054-241500-
WASHINGTON METRO
  /KDAA//-FT BELVOIR
  
CITY           SKY/WX    TMP DP  RH WIND       PRES   REMARKS
WASHINGTON NAT CLOUDY    76  62  62 NE9       29.93R                  
DULLES         CLOUDY    71  63  75 N12       29.94R                  
QUANTICO       CLOUDY    75  70  84 N7        29.92R                  
COLLEGE PARK*  CLOUDY    73  64  73 N6        29.92R                  
GAITHERSBURG*  CLOUDY    66  63  88 CALM      29.97R                  
$$
MDZ006>007-011-014-241500-
BALTIMORE METRO
  
CITY           SKY/WX    TMP DP  RH WIND       PRES   REMARKS
BWI AIRPORT    CLOUDY    72  63  73 N8        29.91R                  
MD SCIENCE CTR   N/A     73  62  68 MISG      29.92R                  
MARTIN STATE   CLOUDY    72  68  88 NW6       29.92R                  
ANNAPOLIS      CLOUDY    74  66  76 N9        29.91R                  
FORT MEADE*    CLOUDY    70  63  78 N5        29.94R                  
$$
MDZ012-015-019>023-241500-
MARYLAND EASTERN SHORE
  
CITY           SKY/WX    TMP DP  RH WIND       PRES   REMARKS
OCEAN CITY     CLOUDY    73  68  84 N7        29.88R                  
SALISBURY      NOT AVBL                                               
BAY BRIDGE AP*   N/A     73  64  73 N8        29.91R                  
CAMBRIDGE*     CLOUDY    73  68  83 N5        29.89S                  
EASTON*        CLOUDY    75  73  94 N7        29.93R                  
$$
MDZ017>025-241500-
SOUTHERN MARYLAND
  
CITY           SKY/WX    TMP DP  RH WIND       PRES   REMARKS
PATUXENT RIVER LGT RAIN  73  68  84 NE6       29.89S                  
ST INIGOES     LGT RAIN  73  67  81 N6        29.90R                  
LEONARDTOWN*   CLOUDY    72  66  83 CALM      29.92R                  
$$
MDZ003>005-241500-
NORTH CENTRAL MARYLAND
  
CITY           SKY/WX    TMP DP  RH WIND       PRES   REMARKS
FREDERICK*     CLOUDY    72  66  83 CALM      29.97R                  
HAGERSTOWN APT PTSUNNY   72  58  61 N9        29.95S                  
WESTMINSTER*   CLOUDY    68  63  83 N6        29.95R                  
$$
MDZ501>502-241500-
WESTERN MARYLAND
  
CITY           SKY/WX    TMP DP  RH WIND       PRES   REMARKS
OAKLAND*       CLOUDY    59 N/A N/A NW3       30.04S                  
CUMBERLAND*    PTSUNNY   72  61  68 NE5       30.01S                  
$$
VAZ025>031-241500-
SHENANDOAH VALLEY
  
CITY           SKY/WX    TMP DP  RH WIND       PRES   REMARKS
WINCHESTER*    NOT AVBL                                               
STAUNTON*      NOT AVBL                                               
$$
WVZ021-048>050-054>055-241500-
EASTERN WEST VIRGINIA PANHANDLE
  
CITY           SKY/WX    TMP DP  RH WIND       PRES   REMARKS
MARTINSBURG    CLOUDY    72  62  71 N5        29.96R                  
PETERSBURG*    DRIZZLE   68  59  73 E5        29.98S                  
$$
VAZ036>039-050-241500-
CENTRAL FOOTHILLS
  
CITY           SKY/WX    TMP DP  RH WIND       PRES   REMARKS
CHARLOTTESVILL CLOUDY    74  70  87 SE3       29.94R FOG              
ORANGE*        NOT AVBL                                               
$$
VAZ055>057-241500-
NORTH AND CENTRAL PIEDMONT
  
CITY           SKY/WX    TMP DP  RH WIND       PRES   REMARKS
FREDERICKSBRG* NOT AVBL                                               
STAFFORD*      NOT AVBL                                               
$$
NCZ024-NYZ072-PAZ021-071-VAZ022-071-241500-
OTHER REGIONAL OBSERVATIONS
  
CITY           SKY/WX    TMP DP  RH WIND       PRES   REMARKS
NEW YORK CITY  CLOUDY    74  63  68 NE6       29.89R                  
PHILADELPHIA   PTSUNNY   74  59  59 N10       29.89R                  
PITTSBURGH     CLOUDY    68  56  65 N12       30.02S                  
ROANOKE        PTSUNNY   73  66  78 CALM      29.98S                  
RICHMOND       RAIN      75  71  87 CALM      29.91S FOG              
RALEIGH        PTSUNNY   78  70  76 N5        29.93S                  
$$
ANZ530>537-241500-
MARINE OBSERVATIONS
  
STATION/POSITION TIME  TEMP    WIND        PRES
                       AIR SEA DIR/SP/G
                 (UTC) (F)     (DEG/KT/KT) (MB)
THOMAS PT LIGHT  1400   73 79  360/ 13/ 14 1013.2R
BALT KEY BRIDGE  1400   73     360/ 12/ 14 1012.4R
COVE POINT       1400   74      50/ 10/ 13 1012.3R
LEWISETTA        1400   75 81   30/  5/  7 1012.2R
SOLOMONS ISLAND  1400      81                N/A
PINEY POINT      1400           30/  8/  9   N/A
$$